Regional Weather Roundup
Issued by NWS

Home | Current Version | Previous Version | Text Only | Print | Product List | Glossary Off
Versions: 1 2 3 4 5 6 7 8 9 10 11 12 13 14 15 16 17 18 19 20 21 22 23 24 25 26 27 28 29 30 31 32 33 34 35 36 37 38 39 40 41 42 43 44 45 46 47 48 49 50

000
ASUS45 KCYS 271910
RWRWY

WYOMING REGIONAL WEATHER ROUNDUP
NATIONAL WEATHER SERVICE CHEYENNE WY
100 PM MDT MON MAR 27 2017

NOTE:  "FAIR" INDICATES FEW OR NO CLOUDS BELOW 12,000 FEET
WITH NO SIGNIFICANT WEATHER AND/OR OBSTRUCTIONS TO VISIBILITY.

WYZ001-272000-
YELLOWSTONE NATIONAL PARK

CITY           SKY/WX    TMP DP  RH WIND       PRES   REMARKS
LK YELLOWSTONE   N/A     34  28  79 VRB5      29.91S WCI  30
W YELLOWSTONE  NOT AVBL

$$
WYZ002>013-054>058-071-098>099-272000-
NORTHERN WYOMING

CITY           SKY/WX    TMP DP  RH WIND       PRES   REMARKS
JACKSON        CLOUDY    43  30  61 SW7       29.87F
CODY           FAIR      53  24  32 VRB7      29.84F
GREYBULL       FAIR      57  25  29 VRB3      29.82F
WORLAND        FAIR      55  29  36 CALM      29.82F
SHERIDAN       CLOUDY    57  28  33 CALM      29.82F
BUFFALO        CLOUDY    55  31  39 N8        29.84F
GILLETTE       FAIR      55  29  36 SE9       29.83F
HULETT         MOCLDY    59  30  33 NE10G16   29.84S
NEWCASTLE      FAIR      55  32  41 S9G20     29.84F

$$
WYZ014>020-022>026-101>103-272000-
CENTRAL WYOMING

CITY           SKY/WX    TMP DP  RH WIND       PRES   REMARKS
BIG PINEY      FAIR      41  27  57 VRB5      29.89F
PINEDALE       FAIR      41  27  56 SE7       29.90F
DUBOIS         MOCLDY    43  21  42 NW8G16    29.85F
LANDER         FAIR      54  25  32 VRB5      29.82F
RIVERTON       FAIR      52  24  33 VRB6      29.83F
CASPER         FAIR      52  22  30 W5        29.84F
DOUGLAS        FAIR      59  21  23 NW13G18   29.83F

$$
WYZ021-027>030-104>119-272000-
SOUTHERN WYOMING

CITY           SKY/WX    TMP DP  RH WIND       PRES   REMARKS
EVANSTON       PTSUNNY   43  28  55 E6        29.85F
KEMMERER         N/A     41  28  60 E5        29.88F
FORT BRIDGER   CLOUDY    44  32  62 MISG      29.90S
ROCK SPRINGS   FAIR      49  23  36 CALM      29.86F
DIXON            N/A     53  25  34 S8        29.89F
RAWLINS        PTSUNNY   52  18  26 W6        29.87F
SARATOGA       MOCLDY    50  23  34 NW13      29.88F
LARAMIE        CLOUDY    47  23  38 S10       29.89F
CHEYENNE       CLOUDY    52  26  36 S8        29.89F
TORRINGTON     FAIR      62  23  22 W9G25     29.83F
PINE BLUFFS    FAIR      59  28  31 SW9G17    29.89F

$$



USA.gov is the U.S. government's official web portal to all federal, state and local government web resources and services.